www.pogodaiklimat.ru
ПОГОДА в Дои Му Со Агромете
Время
(UTC), дата
12 12.02
15 12.02
18 12.02
21 12.02
00 13.02
03 13.02
06 13.02
09 13.02
12 13.02
15 13.02
18 13.02
21 13.02
00 14.02
03 14.02
06 14.02
09 14.02
12 14.02
15 14.02
18 14.02
21 14.02
00 15.02
03 15.02
06 15.02
09 15.02
12 15.02
15 15.02
18 15.02
21 15.02
00 16.02
03 16.02
06 16.02
09 16.02
12 16.02
15 16.02
18 16.02
21 16.02
00 17.02
03 17.02
06 17.02
09 17.02
12 17.02
15 17.02
18 17.02
21 17.02
00 18.02
03 18.02
06 18.02
09 18.02
12 18.02
15 18.02
18 18.02
21 18.02
00 19.02
03 19.02
06 19.02
09 19.02
Ветер
(напр.,м/с)
Видим. Явления Облачность Т
(С)
Тd
(С)
f
(%)
Тe
(С)
Тes
(С)
Комфортность P
(гПа)
Po
(гПа)
Тmin
(С)
Tmax
(С)
R
(мм)
R24
(мм)
S
(см)
ЮЗ 3 5000 м мгла 1/1 600 м
[Cu hum Ac und]
+23.6 +13.3 52 +26 +26 жарко 1011.5 916.6 +29.5
штиль 0 7000 м дымка ясно +18.6 +13.5 72 +19 +19 1014.8 918.0
штиль 0 7000 м дымка ясно +15.8 +13.3 85 +16 +16 1015.5 917.9
штиль 0 7000 м дымка ясно +15.1 +12.2 83 +15 +15 1014.4 916.6
ЮЗ 4 7000 м дымка 3/0
[Ac lent]
+17.2 +12.1 72 +17 +17 1014.3 917.2 +14.6
ЮЗ 5 8000 м мгла 3/0
[Ac lent]
+24.1 +11.5 45 +26 +30 жарко 1014.3 919.3
З 10 8000 м мгла 3/1 600 м
[Cu med, cong Ac lent]
+26.8 +11.4 38 +28 +28 жарко 1009.9 916.1
З 14 8000 м мгла 1/1 1000 м
[Sc Ac lent]
+27.4 +12.7 40 +29 +29 жарко 1008.2 914.8
ЮЗ 10 7000 м мгла 1/0
[Ac lent]
+23.5 +10.9 45 +25 +25 комфорт 1009.6 914.8 +27.8
ЮЗ 6 7000 м мгла ясно +21.2 +11.0 52 +23 +23 комфорт 1010.6 915.1
ЮЗ 10 7000 м мгла 1/1 1000 м
[Sc Ac lent]
+20.5 +11.7 57 +22 +22 комфорт 1010.1 914.4
З 6 7000 м дымка ясно +19.0 +12.8 67 +20 +20 1009.1 913.1
ЮЗ 6 7000 м мгла 1/1 600 м
[Cu hum Ci fib]
+18.3 +11.1 63 +18 +18 1010.4 914.0 +18.1
ЮЗ 14 9000 м мгла 1/0
[Ac und]
+23.0 +12.5 52 +26 +26 жарко 1011.1 916.1
ЮЗ 9 7000 м мгла 3/0
[Ci fib]
+26.0 +13.6 46 +28 +30 жарко 1008.0 914.2
Ю 6 6000 м мгла ясно +26.0 +12.3 43 +28 +30 жарко 1005.8 912.1
ЮЗ 7 6000 м мгла ясно +21.9 +11.5 52 +24 +24 комфорт 1008.5 913.4 +27.0
ЮЗ 8 5000 м дымка ясно +19.0 +13.0 68 +19 +19 1011.4 915.1
ЮЗ 4 6000 м дымка ясно +18.0 +11.6 66 +18 +18 1012.0 915.4
З 3 7000 м дымка ясно +16.9 +10.9 68 +17 +17 1011.0 914.1
З 6 7000 м дымка ясно +15.7 +11.0 74 +14 +14 1012.7 915.2 +15.6
ЮЗ 6 7000 м мгла ясно +21.6 +12.8 57 +24 +28 комфорт 1013.2 917.6
ЮЗ 8 7000 м мгла ясно +26.5 +10.9 38 +27 +30 жарко 1009.6 915.7
З 12 7000 м мгла ясно +26.5 +8.7 32 +27 +27 жарко 1007.7 914.0
ЮЗ 8 7000 м мгла ясно +22.0 +14.3 62 +25 +25 комфорт 1010.1 914.9 +27.4
ЮЗ 3 7000 м дымка ясно +18.5 +15.1 81 +19 +19 1013.8 917.1
З 3 4000 м дымка ясно +14.8 +13.4 91 +14 +14 1014.9 917.0
ЮЗ 3 4000 м дымка ясно +15.6 +14.5 93 +15 +15 1013.7 916.2
ЮЗ 3 200 м туман ?/? +16.1 +15.9 99 +16 +16 1015.0 917.5 +13.6
штиль 0 4000 м мгла {туман} ясно +21.9 +13.6 59 +25 +39 комфорт 1015.1 919.4
СВ 4 7000 м мгла {туман} ясно +27.9 +9.0 31 +28 +39 жарко 1010.8 917.3
штиль 0 5000 м мгла ясно +29.4 +9.1 28 +29 +36 жарко 1008.3 915.5
штиль 0 6000 м дымка ясно +21.1 +15.2 69 +24 +24 комфорт 1012.5 916.7 +29.5
штиль 0 5000 м дымка ясно +15.6 +13.6 88 +15 +15 1016.1 918.3
штиль 0 6000 м дымка ясно +13.9 +12.4 91 +13 +13 1016.3 917.9
штиль 0 6000 м дымка ясно +13.0 +12.1 94 +12 +12 1016.0 917.4
штиль 0 5000 м дымка 3/0
[Ac lent Ci fib]
+12.2 +11.8 97 +12 +12 1016.9 918.0 +11.6
штиль 0 6000 м мгла ясно +26.1 +13.1 45 +28 +43 жарко 1014.4 920.0
В 8 5000 м мгла ясно +28.5 +12.4 37 +30 +33 жарко 1011.6 918.2
СВ 3 5000 м мгла ясно +29.2 +13.0 37 +31 +35 жарко 1009.4 916.4
штиль 0 5000 м дымка ясно +22.0 +15.3 66 +26 +26 душно 1013.4 917.9 +29.5
штиль 0 5000 м дымка ясно +17.5 +14.9 85 +17 +17 1016.2 919.0
штиль 0 4000 м дымка ясно +17.0 +13.4 79 +17 +17 1016.2 918.9
штиль 0 4000 м дымка ясно +16.4 +14.1 86 +16 +16 1015.0 917.6
штиль 0 7000 м дымка ясно +15.2 +13.9 92 +15 +15 1016.9 918.9 +15.0
В 8 6000 м мгла ясно +23.4 +15.2 60 +28 +30 душно 1015.6 920.3
С 7 6000 м мгла ясно +26.1 +15.2 51 +29 +34 жарко 1013.1 918.9
СВ 5 5000 м мгла ясно +26.2 +14.9 50 +29 +32 жарко 1011.1 917.0
штиль 0 7000 м дымка ясно +21.3 +15.0 67 +24 +24 комфорт 1013.7 917.9 +26.4
штиль 0 6000 м дымка ясно +18.4 +15.1 81 +19 +19 1017.6 920.5
штиль 0 5000 м дымка ясно +18.0 +15.4 85 +18 +18 1017.5 920.3
штиль 0 6000 м дымка ясно +16.2 +15.0 93 +16 +16 1016.8 919.1
штиль 0 5000 м дымка 8/3 600 м
[Cu med, cong Ac und Cs]
+15.6 +14.9 96 +15 +15 1018.4 920.4 +15.4
штиль 0 5000 м мгла 6/3 600 м
[Sc Ac lent Cs]
+24.0 +15.7 60 +27 +35 жарко 1018.1 922.8
З 3 5000 м мгла 4/3 1000 м
[Sc Ac lent Ci fib]
+27.6 +15.1 46 +30 +39 жарко 1013.7 919.8
В 3 6000 м мгла 3/3 600 м
[Cu med, cong Ac lent Ci fib]
+27.4 +13.3 42 +29 +32 жарко 1011.5 917.8
Местоположение метеостанции Дои Му Со Агромет (Таиланд): широта 16.75 долгота 98.93 высота над уровнем моря 368 м.
В архиве по умолчанию представлена погода в Дои Му Со Агромете за последнюю неделю. Архивные данные за месяц целиком и за предыдущие месяцы, начиная с января 2011 года, Вы можете получить, выбрав интересующий диапазон дат из раскрывающегося списка и нажав кнопку "Найти!".
*Определитесь, кто Вы:
Внимание! Время в таблицах - всемирное. Для получения местного времени необходимо прибавить поправку, которая равна 7 ч.
Смотрите также архив погоды в соседних городах и на ближайших метеорологических станциях:
Партнеры нашего сайта:      
Пояснения к столбцам:
  • Ветер - указаны скорость ветра в м/с - средняя за 10 мин, порывы в срок и между сроками (в фигурных скобках) и направление, откуда дует ветер: С - северный,
  • СВ - северо-восточный, В - восточный, ЮВ - юго-восточный, Ю - южный, ЮЗ - юго-западный, З - западный, СЗ - северо-западный.
  • Видимость - горизонтальная дальность видимости в метрах или километрах. При видимости от 1 до 10 км при отсутствии осадков обычно наблюдается дымка, при ухудшении видимости до 1 км и менее - туман. В сухую погоду видимость может ухудшаться дымом, пылью или мглою.
  • Явления - указаны атмосферные явления, наблюдавшиеся в срок или в последний час перед сроком; фигурными скобками обозначены явления, наблюдавшиеся между сроками (за 1-3 часа до срока); квадратными скобками обозначены град или гололедные отложения с указанием их диаметра в мм.
  • Облачность - указаны через наклонную черту общая и нижняя облачность в баллах и высота нижней границы облаков в метрах; квадратными скобками обозначены формы облаков: Ci - перистые, Cs - перисто-слоистые, Cc - перисто-кучевые, Ac - высококучевые, As - высокослоистые, Sc - слоисто-кучевые, Ns - слоисто-дождевые, Cu - кучевые, Cb - кучево-дождевые. Подробнее классификацию облаков см. в Атласе облаков (PDF).
  • T - Температура воздуха - температура, измеренная на высоте 2 м над землей.
  • Td - Температура точки росы - температура, при понижении до которой содержащийся в воздухе водяной пар достигнет насыщения.
  • f - Относительная влажность воздуха - влажноcть воздуха, измеренная на высоте 2 м над землей.
  • Te - Эффективная температура - температура, которую ощущает одетый по сезону человек в тени. Характеристика душности погоды. При расчете учитывается влияние влажности воздуха и скорости ветра на теплоощущения человека.
  • Tes - Эффективная температура на солнце - температура, которую ощущает человек, с поправкой на солнечный нагрев. Характеристика знойности погоды. Зависит от высоты солнца над горизонтом, облачности и скорости ветра. Ночью, в пасмурную погоду, а также при ветре 12 м/с и более поправка равна нулю.
  • P - Атмосферное давление - приведенное к уровню моря атмосферное давление.
  • Po - Атмосферное давление - измеренное на уровне метеостанции атмосферное давление.
  • Tmin - Минимальная температура - минимум температуры воздуха на высоте 2 м над землей.
  • Tmax - Максимальная температура - максимум температуры воздуха на высоте 2 м над землей.
  • R - Количество осадков - Количество выпавших осадков за период времени, мм. При наведении курсора мыши на число - период времени, за который выпало указанное количество осадков.
  • R24 - Количество осадков - Количество выпавших осадков за 24 часа, мм.
  • S - Снежный покров - Высота снежного покрова, см. При наведении курсора мыши на число - состояние снежного покрова и степень покрытия местности в баллах.